Time,TemperatureF,DewpointF,PressureIn,WindDirection,WindDirectionDegrees,WindSpeedMPH,WindSpeedGustMPH,Humidity,HourlyPrecipIn,Conditions,Clouds,dailyrainin,SolarRadiationWatts/m^2,SoftwareType,DateUTC
2013-08-03 00:02:00,67.0,48.0,-100.00,ESE,104,10.0,20.0,51,0.00,,,0.00,0.000000,,2013-08-03 06:02:00,
2013-08-03 00:12:00,67.0,48.0,-100.00,ESE,104,10.0,20.0,51,0.00,,,0.00,0.000000,,2013-08-03 06:12:00,
2013-08-03 00:30:00,61.0,52.0,-100.00,East,90,10.0,22.0,71,0.00,,,0.00,0.000000,,2013-08-03 06:30:00,
2013-08-03 00:52:00,61.0,52.0,-100.00,East,90,10.0,22.0,71,0.00,,,0.00,0.000000,,2013-08-03 06:52:00,
2013-08-03 01:02:00,61.0,52.0,-100.00,East,90,10.0,22.0,71,0.00,,,0.00,0.000000,,2013-08-03 07:02:00,
2013-08-03 01:12:00,61.0,52.0,-100.00,East,90,10.0,22.0,71,0.00,,,0.00,0.000000,,2013-08-03 07:12:00,
2013-08-03 01:22:00,61.0,52.0,-100.00,East,90,10.0,22.0,71,0.00,,,0.00,0.000000,,2013-08-03 07:22:00,
2013-08-03 01:30:00,60.0,51.0,-100.00,East,85,4.0,15.0,73,0.00,,,0.00,0.000000,,2013-08-03 07:30:00,
2013-08-03 01:53:00,60.0,51.0,-100.00,East,85,4.0,15.0,73,0.00,,,0.00,0.000000,,2013-08-03 07:53:00,
2013-08-03 02:02:00,60.0,51.0,-100.00,East,85,4.0,15.0,73,0.00,,,0.00,0.000000,,2013-08-03 08:02:00,
2013-08-03 02:22:00,60.0,51.0,-100.00,East,85,4.0,15.0,73,0.00,,,0.00,0.000000,,2013-08-03 08:22:00,
2013-08-03 02:30:00,61.0,50.0,-100.00,NE,47,3.0,8.0,67,0.00,,,0.00,0.000000,,2013-08-03 08:30:00,
2013-08-03 02:52:00,61.0,50.0,-100.00,NE,47,3.0,8.0,67,0.00,,,0.00,0.000000,,2013-08-03 08:52:00,
2013-08-03 03:02:00,61.0,50.0,-100.00,NE,47,3.0,8.0,67,0.00,,,0.00,0.000000,,2013-08-03 09:02:00,
2013-08-03 03:12:00,61.0,50.0,-100.00,NE,47,3.0,8.0,67,0.00,,,0.00,0.000000,,2013-08-03 09:12:00,
2013-08-03 03:22:00,61.0,50.0,-100.00,NE,47,3.0,8.0,67,0.00,,,0.00,0.000000,,2013-08-03 09:22:00,
2013-08-03 03:30:00,62.0,49.0,-100.00,SE,128,2.0,8.0,62,0.00,,,0.00,0.000000,,2013-08-03 09:30:00,
2013-08-03 03:53:00,62.0,49.0,-100.00,SE,128,2.0,8.0,62,0.00,,,0.00,0.000000,,2013-08-03 09:53:00,
2013-08-03 04:02:00,62.0,49.0,-100.00,SE,128,2.0,8.0,62,0.00,,,0.00,0.000000,,2013-08-03 10:02:00,
2013-08-03 04:12:00,62.0,49.0,-100.00,SE,128,2.0,8.0,62,0.00,,,0.00,0.000000,,2013-08-03 10:12:00,
2013-08-03 04:22:00,62.0,49.0,-100.00,SE,128,2.0,8.0,62,0.00,,,0.00,0.000000,,2013-08-03 10:22:00,
2013-08-03 04:30:00,60.0,51.0,-100.00,NNE,32,5.0,6.0,71,0.00,,,0.00,0.000000,,2013-08-03 10:30:00,
2013-08-03 04:53:00,60.0,51.0,-100.00,NNE,32,5.0,6.0,71,0.00,,,0.00,0.000000,,2013-08-03 10:53:00,
2013-08-03 05:02:00,60.0,51.0,-100.00,NNE,32,5.0,6.0,71,0.00,,,0.00,0.000000,,2013-08-03 11:02:00,
2013-08-03 05:12:00,60.0,51.0,-100.00,NNE,32,5.0,6.0,71,0.00,,,0.00,0.000000,,2013-08-03 11:12:00,
2013-08-03 05:22:00,60.0,51.0,-100.00,NNE,32,5.0,6.0,71,0.00,,,0.00,0.000000,,2013-08-03 11:22:00,
2013-08-03 05:30:00,60.0,51.0,-100.00,NW,319,3.0,8.0,72,0.00,,,0.00,0.000000,,2013-08-03 11:30:00,
2013-08-03 05:53:00,60.0,51.0,-100.00,NW,319,3.0,8.0,72,0.00,,,0.00,0.000000,,2013-08-03 11:53:00,
2013-08-03 06:02:00,60.0,51.0,-100.00,NW,319,3.0,8.0,72,0.00,,,0.00,0.000000,,2013-08-03 12:02:00,
2013-08-03 06:12:00,60.0,51.0,-100.00,NW,319,3.0,8.0,72,0.00,,,0.00,0.000000,,2013-08-03 12:12:00,
2013-08-03 06:22:00,60.0,51.0,-100.00,NW,319,3.0,8.0,72,0.00,,,0.00,0.000000,,2013-08-03 12:22:00,
2013-08-03 06:30:00,61.0,51.0,-100.00,NNW,335,2.0,5.0,69,0.00,,,-99.99,1.000000,,2013-08-03 12:30:00,
2013-08-03 06:52:00,61.0,51.0,-100.00,NNW,335,2.0,5.0,69,0.00,,,-99.99,1.000000,,2013-08-03 12:52:00,
2013-08-03 07:02:00,61.0,51.0,-100.00,NNW,335,2.0,5.0,69,0.00,,,-99.99,1.000000,,2013-08-03 13:02:00,
2013-08-03 07:12:00,61.0,51.0,-100.00,NNW,335,2.0,5.0,69,0.00,,,-99.99,1.000000,,2013-08-03 13:12:00,
2013-08-03 07:22:00,61.0,51.0,-100.00,NNW,335,2.0,5.0,69,0.00,,,-99.99,1.000000,,2013-08-03 13:22:00,
2013-08-03 07:30:00,61.0,52.0,-100.00,NE,53,1.0,4.0,73,0.00,,,0.00,27.000000,,2013-08-03 13:30:00,
2013-08-03 07:52:00,61.0,52.0,-100.00,NE,53,1.0,4.0,73,0.00,,,0.00,27.000000,,2013-08-03 13:52:00,
2013-08-03 08:02:00,61.0,52.0,-100.00,NE,53,1.0,4.0,73,0.00,,,0.00,27.000000,,2013-08-03 14:02:00,
2013-08-03 08:12:00,61.0,52.0,-100.00,NE,53,1.0,4.0,73,0.00,,,0.00,27.000000,,2013-08-03 14:12:00,
2013-08-03 08:22:00,61.0,52.0,-100.00,NE,53,1.0,4.0,73,0.00,,,0.00,27.000000,,2013-08-03 14:22:00,
2013-08-03 08:30:00,64.0,52.0,-100.00,NW,304,0.0,3.0,66,0.00,,,0.00,104.000000,,2013-08-03 14:30:00,
2013-08-03 08:52:00,64.0,52.0,-100.00,NW,304,0.0,3.0,66,0.00,,,0.00,104.000000,,2013-08-03 14:52:00,
2013-08-03 09:02:00,64.0,52.0,-100.00,NW,304,0.0,3.0,66,0.00,,,0.00,104.000000,,2013-08-03 15:02:00,
2013-08-03 09:12:00,64.0,52.0,-100.00,NW,304,0.0,3.0,66,0.00,,,0.00,104.000000,,2013-08-03 15:12:00,
2013-08-03 09:23:00,64.0,52.0,-100.00,NW,304,0.0,3.0,66,0.00,,,0.00,104.000000,,2013-08-03 15:23:00,
2013-08-03 09:30:00,74.0,51.0,-100.00,SSW,202,2.0,5.0,45,0.00,,,0.00,536.000000,,2013-08-03 15:30:00,
2013-08-03 10:02:00,74.0,51.0,-100.00,SSW,202,2.0,5.0,45,0.00,,,0.00,536.000000,,2013-08-03 16:02:00,
2013-08-03 10:12:00,74.0,51.0,-100.00,SSW,202,2.0,5.0,45,0.00,,,0.00,536.000000,,2013-08-03 16:12:00,
2013-08-03 10:23:00,74.0,51.0,-100.00,SSW,202,2.0,5.0,45,0.00,,,0.00,536.000000,,2013-08-03 16:23:00,
2013-08-03 10:30:00,76.0,51.0,-100.00,SW,221,5.0,11.0,41,0.00,,,0.00,754.000000,,2013-08-03 16:30:00,
2013-08-03 10:53:00,76.0,51.0,-100.00,SW,221,5.0,11.0,41,0.00,,,0.00,754.000000,,2013-08-03 16:53:00,
2013-08-03 11:02:00,76.0,51.0,-100.00,SW,221,5.0,11.0,41,0.00,,,0.00,754.000000,,2013-08-03 17:02:00,
2013-08-03 11:12:00,76.0,51.0,-100.00,SW,221,5.0,11.0,41,0.00,,,0.00,754.000000,,2013-08-03 17:12:00,
2013-08-03 11:22:00,76.0,51.0,-100.00,SW,221,5.0,11.0,41,0.00,,,0.00,754.000000,,2013-08-03 17:22:00,
2013-08-03 11:30:00,79.0,52.0,-100.00,SW,220,6.0,12.0,39,0.00,,,0.00,903.000000,,2013-08-03 17:30:00,
2013-08-03 12:02:00,79.0,52.0,-100.00,SW,220,6.0,12.0,39,0.00,,,0.00,903.000000,,2013-08-03 18:02:00,
2013-08-03 12:12:00,79.0,52.0,-100.00,SW,220,6.0,12.0,39,0.00,,,0.00,903.000000,,2013-08-03 18:12:00,
2013-08-03 12:22:00,79.0,52.0,-100.00,SW,220,6.0,12.0,39,0.00,,,0.00,903.000000,,2013-08-03 18:22:00,
2013-08-03 12:30:00,81.0,49.0,-100.00,WNW,284,5.0,17.0,33,0.00,,,0.00,1022.000000,,2013-08-03 18:30:00,
2013-08-03 12:53:00,81.0,49.0,-100.00,WNW,284,5.0,17.0,33,0.00,,,0.00,1022.000000,,2013-08-03 18:53:00,
2013-08-03 13:02:00,81.0,49.0,-100.00,WNW,284,5.0,17.0,33,0.00,,,0.00,1022.000000,,2013-08-03 19:02:00,
2013-08-03 13:12:00,81.0,49.0,-100.00,WNW,284,5.0,17.0,33,0.00,,,0.00,1022.000000,,2013-08-03 19:12:00,
2013-08-03 13:22:00,81.0,49.0,-100.00,WNW,284,5.0,17.0,33,0.00,,,0.00,1022.000000,,2013-08-03 19:22:00,
2013-08-03 13:30:00,82.0,50.0,-100.00,West,271,5.0,11.0,33,0.00,,,0.00,504.000000,,2013-08-03 19:30:00,
2013-08-03 13:53:00,82.0,50.0,-100.00,West,271,5.0,11.0,33,0.00,,,0.00,504.000000,,2013-08-03 19:53:00,
2013-08-03 14:02:00,82.0,50.0,-100.00,West,271,5.0,11.0,33,0.00,,,0.00,504.000000,,2013-08-03 20:02:00,
2013-08-03 14:12:00,82.0,50.0,-100.00,West,271,5.0,11.0,33,0.00,,,0.00,504.000000,,2013-08-03 20:12:00,
2013-08-03 14:22:00,82.0,50.0,-100.00,West,271,5.0,11.0,33,0.00,,,0.00,504.000000,,2013-08-03 20:22:00,
2013-08-03 14:30:00,81.0,50.0,-100.00,West,275,6.0,13.0,34,0.00,,,0.00,378.000000,,2013-08-03 20:30:00,
2013-08-03 14:52:00,81.0,50.0,-100.00,West,275,6.0,13.0,34,0.00,,,0.00,378.000000,,2013-08-03 20:52:00,
2013-08-03 15:02:00,81.0,50.0,-100.00,West,275,6.0,13.0,34,0.00,,,0.00,378.000000,,2013-08-03 21:02:00,
2013-08-03 15:12:00,81.0,50.0,-100.00,West,275,6.0,13.0,34,0.00,,,0.00,378.000000,,2013-08-03 21:12:00,
2013-08-03 15:22:00,81.0,50.0,-100.00,West,275,6.0,13.0,34,0.00,,,0.00,378.000000,,2013-08-03 21:22:00,
2013-08-03 15:52:00,85.0,47.0,-100.00,South,190,4.0,11.0,27,0.00,,,0.00,848.000000,,2013-08-03 21:52:00,
2013-08-03 16:02:00,85.0,47.0,-100.00,South,190,4.0,11.0,27,0.00,,,0.00,848.000000,,2013-08-03 22:02:00,
2013-08-03 16:30:00,79.0,48.0,-100.00,NE,54,6.0,12.0,34,-99.99,,,0.00,536.000000,,2013-08-03 22:30:00,
2013-08-03 16:52:00,79.0,48.0,-100.00,NE,54,6.0,12.0,34,-99.99,,,0.00,536.000000,,2013-08-03 22:52:00,
2013-08-03 17:02:00,79.0,48.0,-100.00,NE,54,6.0,12.0,34,-99.99,,,0.00,536.000000,,2013-08-03 23:02:00,
2013-08-03 17:12:00,79.0,48.0,-100.00,NE,54,6.0,12.0,34,-99.99,,,0.00,536.000000,,2013-08-03 23:12:00,
2013-08-03 17:22:00,79.0,48.0,-100.00,NE,54,6.0,12.0,34,-99.99,,,0.00,536.000000,,2013-08-03 23:22:00,
2013-08-03 17:30:00,82.0,46.0,-100.00,NW,311,5.0,10.0,28,0.00,,,0.00,276.000000,,2013-08-03 23:30:00,
2013-08-03 17:52:00,82.0,46.0,-100.00,NW,311,5.0,10.0,28,0.00,,,0.00,276.000000,,2013-08-03 23:52:00,
2013-08-03 18:02:00,82.0,46.0,-100.00,NW,311,5.0,10.0,28,0.00,,,0.00,276.000000,,2013-08-04 00:02:00,
2013-08-03 18:12:00,82.0,46.0,-100.00,NW,311,5.0,10.0,28,0.00,,,0.00,276.000000,,2013-08-04 00:12:00,
2013-08-03 18:22:00,82.0,46.0,-100.00,NW,311,5.0,10.0,28,0.00,,,0.00,276.000000,,2013-08-04 00:22:00,
2013-08-03 18:30:00,82.0,43.0,-100.00,NNW,327,4.0,16.0,25,0.00,,,0.00,485.000000,,2013-08-04 00:30:00,
2013-08-03 18:53:00,82.0,43.0,-100.00,NNW,327,4.0,16.0,25,0.00,,,0.00,485.000000,,2013-08-04 00:53:00,
2013-08-03 19:02:00,82.0,43.0,-100.00,NNW,327,4.0,16.0,25,0.00,,,0.00,485.000000,,2013-08-04 01:02:00,
2013-08-03 19:12:00,82.0,43.0,-100.00,NNW,327,4.0,16.0,25,0.00,,,0.00,485.000000,,2013-08-04 01:12:00,
2013-08-03 19:22:00,82.0,43.0,-100.00,NNW,327,4.0,16.0,25,0.00,,,0.00,485.000000,,2013-08-04 01:22:00,
2013-08-03 19:30:00,78.0,45.0,-100.00,North,353,7.0,13.0,31,0.00,,,0.00,149.000000,,2013-08-04 01:30:00,
2013-08-03 20:02:00,78.0,45.0,-100.00,North,353,7.0,13.0,31,0.00,,,0.00,149.000000,,2013-08-04 02:02:00,
2013-08-03 20:12:00,78.0,45.0,-100.00,North,353,7.0,13.0,31,0.00,,,0.00,149.000000,,2013-08-04 02:12:00,
2013-08-03 20:22:00,78.0,45.0,-100.00,North,353,7.0,13.0,31,0.00,,,0.00,149.000000,,2013-08-04 02:22:00,
2013-08-03 20:30:00,72.0,46.0,-100.00,North,3,5.0,12.0,39,0.00,,,0.00,14.000000,,2013-08-04 02:30:00,
2013-08-03 20:52:00,72.0,46.0,-100.00,North,3,5.0,12.0,39,0.00,,,0.00,14.000000,,2013-08-04 02:52:00,
2013-08-03 21:02:00,72.0,46.0,-100.00,North,3,5.0,12.0,39,0.00,,,0.00,14.000000,,2013-08-04 03:02:00,
2013-08-03 21:11:00,72.0,46.0,-100.00,North,3,5.0,12.0,39,0.00,,,0.00,14.000000,,2013-08-04 03:11:00,
2013-08-03 21:22:00,72.0,46.0,-100.00,North,3,5.0,12.0,39,0.00,,,0.00,14.000000,,2013-08-04 03:22:00,
2013-08-03 21:30:00,71.0,44.0,-100.00,North,11,5.0,13.0,38,0.00,,,0.00,0.000000,,2013-08-04 03:30:00,
2013-08-03 21:52:00,71.0,44.0,-100.00,North,11,5.0,13.0,38,0.00,,,0.00,0.000000,,2013-08-04 03:52:00,
2013-08-03 22:03:00,71.0,44.0,-100.00,North,11,5.0,13.0,38,0.00,,,0.00,0.000000,,2013-08-04 04:03:00,
2013-08-03 22:11:00,71.0,44.0,-100.00,North,11,5.0,13.0,38,0.00,,,0.00,0.000000,,2013-08-04 04:11:00,
2013-08-03 22:22:00,71.0,44.0,-100.00,North,11,5.0,13.0,38,0.00,,,0.00,0.000000,,2013-08-04 04:22:00,
2013-08-03 22:30:00,70.0,43.0,-100.00,North,7,5.0,10.0,37,0.00,,,0.00,0.000000,,2013-08-04 04:30:00,
2013-08-03 22:52:00,70.0,43.0,-100.00,North,7,5.0,10.0,37,0.00,,,0.00,0.000000,,2013-08-04 04:52:00,
2013-08-03 23:02:00,70.0,43.0,-100.00,North,7,5.0,10.0,37,0.00,,,0.00,0.000000,,2013-08-04 05:02:00,
2013-08-03 23:12:00,70.0,43.0,-100.00,North,7,5.0,10.0,37,0.00,,,0.00,0.000000,,2013-08-04 05:12:00,
2013-08-03 23:22:00,70.0,43.0,-100.00,North,7,5.0,10.0,37,0.00,,,0.00,0.000000,,2013-08-04 05:22:00,
2013-08-03 23:30:00,70.0,42.0,-100.00,North,5,5.0,7.0,36,0.00,,,0.00,0.000000,,2013-08-04 05:30:00,
2013-08-03 23:52:00,70.0,42.0,-100.00,North,5,5.0,7.0,36,0.00,,,0.00,0.000000,,2013-08-04 05:52:00,